[[{"header":{"parameterUnit":"m.s-1","parameterCategory":1,"la1":30.2991,"la2":30.254,"lo1":-89.0895,"lo2":-89.0444,"dy":0.0017,"dx":0.0017,"nx":28,"ny":28,"refTime":"2023-08-03T03:00:00:Z","depth":0,"parameterNumber":2,"parameterNumberName":"U-component_of_WINDS"},"data":[0,0,0,0,0,0,0,0,0,0,0,0,0,0,0,0,0,0,0,0,0,0,0,0,0,0,0,0,0,0,0,0,0,0,0,0,0,0,0,0,0,0,0,0,0,0,0,0,0,0,0,0,0,0,0,0,0,0,0.0641,0.0641,0,0.0642,0.0642,0.0642,0.0646,0.0646,0.0646,0.0646,0.065,0.065,0.065,0,0,0,0,0,0,0,0,0,0,0,0,0,0.0643,0.0643,0.0641,0.0641,0.0641,0.0642,0.0642,0.0642,0.0646,0.0646,0.0646,0.0646,0.065,0.065,0.065,0,0,0,0,0,0,0,0,0,0,0,0,0,0.0643,0.0643,0.0641,0.0643,0.0643,0.0642,0.0642,0.0642,0.0646,0.0646,0.0646,0.0646,0.065,0.065,0.065,0.0647,0,0,0.065,0.065,0,0,0,0,0,0,0,0,0.0643,0.0643,0.0643,0.0643,0.0643,0.0644,0.0644,0.0643,0.0646,0.0645,0.0646,0.0646,0.0648,0.0648,0.0648,0.0647,0.0647,0.065,0.065,0.065,0.065,0,0,0,0,0,0,0,0.0643,0.0643,0.0641,0.0642,0.0643,0.0644,0.0644,0.0644,0.0646,0.0645,0.0645,0.0645,0.0648,0.0648,0.0648,0.0647,0.065,0.065,0.065,0.065,0.0642,0.0642,0,0,0,0,0,0,0.0643,0.0643,0.0641,0.0641,0.0643,0.0644,0.0644,0.0643,0.0646,0.0646,0.0645,0.0645,0.0648,0.0648,0.0648,0.0644,0.065,0.065,0.065,0.0642,0.0642,0.0642,0,0,0,0,0,0,0.0643,0.0642,0.0641,0.0642,0.0642,0.0644,0.0643,0.0643,0.0643,0.0646,0.0646,0.0645,0.0648,0.0648,0.0646,0.0644,0.065,0.065,0.0643,0.0642,0.0642,0.0636,0,0,0,0,0,0,0.0643,0.0642,0.0641,0.0642,0.0642,0.0639,0.0643,0.0643,0.0643,0.0643,0.0645,0.0646,0.0648,0.0646,0.0646,0.0644,0.065,0.0643,0.0643,0.0642,0.0636,0.0636,0.0635,0,0,0,0,0,0.0643,0.064,0.0641,0.0641,0.064,0.0639,0.0639,0.0641,0.0643,0.0642,0.0643,0.0646,0.0644,0.0646,0.0646,0.0644,0.0643,0.0643,0.0642,0.0637,0.0636,0.0635,0,0,0,0,0,0,0.064,0.064,0.0641,0.0639,0.0639,0.064,0.0638,0.064,0.064,0.064,0.0643,0.0644,0.0641,0.0643,0.0645,0.064,0.0644,0.0644,0.064,0.0639,0.0638,0.0638,0.065,0,0,0,0,0,0.0639,0.0638,0.0638,0.0636,0.0636,0.0637,0.0636,0.0638,0.0638,0.0638,0.0639,0.064,0.0639,0.0639,0.0639,0.0636,0.0637,0.0635,0.0634,0.0633,0.0633,0.063,0.0629,0.0641,0.0641,0.0641,0,0,0.0638,0.0637,0.0637,0.0635,0.0635,0.0634,0.0637,0.0636,0.0634,0.0638,0.0636,0.0637,0.0638,0.0635,0.0634,0.0636,0.0629,0.0633,0.0632,0.0632,0.063,0.0629,0.0628,0.064,0.064,0.064,0,0,0.0633,0.0633,0.0631,0.063,0.063,0.063,0.063,0.063,0.063,0.0628,0.0631,0.0629,0.0629,0.0629,0.0629,0.0623,0.0625,0.0623,0.0618,0.0616,0.0615,0.0614,0.0611,0.061,0.0622,0.0622,0.0622,0,0.0632,0.0629,0.063,0.0627,0.0627,0.0629,0.0626,0.0626,0.0626,0.0625,0.0627,0.0625,0.0626,0.0623,0.0621,0.0621,0.062,0.0623,0.0615,0.0614,0.0613,0.0611,0.061,0.0622,0.0622,0.0622,0.0622,0,0.0626,0.0624,0.0622,0.0621,0.062,0.0617,0.0618,0.0617,0.0617,0.0618,0.0615,0.0616,0.0615,0.0614,0.0616,0.0611,0.0612,0.0614,0.0618,0.0612,0.0609,0.0609,0.0621,0.0622,0.0622,0.0622,0,0,0.0622,0.0619,0.0619,0.0617,0.0616,0.0615,0.0612,0.061,0.0609,0.0608,0.0606,0.0604,0.0606,0.0606,0.0607,0.0605,0.0599,0.0607,0.0607,0.0605,0.0592,0.059,0.0589,0.06,0.06,0.06,0.0592,0,0.0617,0.0612,0.0612,0.0608,0.0605,0.0606,0.0604,0.0603,0.0603,0.0601,0.0601,0.0599,0.0602,0.0602,0.0599,0.06,0.0596,0.06,0.0598,0.0598,0.0597,0.0588,0.0586,0.0579,0.0591,0.0591,0.0591,0,0.0612,0.061,0.0605,0.0602,0.0601,0.0599,0.0597,0.0595,0.0593,0.0593,0.0592,0.0593,0.059,0.0593,0.0589,0.0592,0.0591,0.0591,0.059,0.059,0.0594,0.0587,0.0577,0.0576,0.0589,0.059,0.059,0,0.0609,0.0604,0.06,0.0599,0.0597,0.0595,0.0594,0.0592,0.0591,0.0589,0.0587,0.0585,0.0584,0.0583,0.0583,0.0586,0.0578,0.0582,0.0578,0.0578,0.0577,0.0577,0.0566,0.0576,0.0576,0.0576,0.0577,0,0.0604,0.06,0.0598,0.0596,0.0592,0.0592,0.0588,0.0587,0.0585,0.0582,0.0583,0.0581,0.0582,0.0579,0.0579,0.0575,0.0575,0.0575,0.0575,0.0575,0.0575,0.0574,0.0575,0.0576,0.0576,0.0576,0.0576,0,0.06,0.0598,0.0594,0.0591,0.059,0.0587,0.0585,0.0582,0.0581,0.0578,0.0577,0.0576,0.0573,0.0573,0.057,0.057,0.0564,0.0565,0.0565,0.0565,0.0561,0.0561,0.0549,0.0547,0.0559,0.0559,0.0559,0,0.0597,0.0594,0.059,0.0588,0.0586,0.0583,0.0581,0.058,0.0578,0.0575,0.0572,0.0569,0.0566,0.0561,0.056,0.0557,0.0558,0.0554,0.0558,0.0557,0.0557,0.0558,0.0557,0.0554,0.0553,0.0553,0.0553,0,0.0591,0.059,0.0587,0.0583,0.058,0.0577,0.0574,0.0572,0.0571,0.0569,0.0565,0.0562,0.0558,0.0554,0.0551,0.055,0.0551,0.0552,0.0551,0.055,0.055,0.0549,0.0562,0.0552,0.0552,0.0552,0.0553,0.0553,0.0587,0.0584,0.0581,0.0577,0.0574,0.0571,0.0568,0.0566,0.0563,0.0559,0.0558,0.0554,0.0551,0.0547,0.0545,0.0541,0.0543,0.0542,0.0541,0.0541,0.054,0.055,0.0541,0.0541,0.0541,0.0541,0.0541,0,0.0582,0.0579,0.0575,0.057,0.0567,0.0567,0.0563,0.0561,0.0556,0.0553,0.055,0.0545,0.0541,0.0539,0.0535,0.0532,0.0533,0.0531,0.0532,0.0531,0.0539,0.054,0.0531,0.0531,0.0531,0.0531,0.0531,0.0531,0.0578,0.0573,0.0571,0.0564,0.0562,0.0557,0.0554,0.0551,0.0549,0.0542,0.0539,0.0537,0.0534,0.053,0.0526,0.0525,0.0524,0.0522,0.0522,0.053,0.0531,0.0532,0.0533,0.0522,0.0522,0.0514,0.0514,0.0514]},{"header":{"parameterUnit":"m.s-1","parameterCategory":1,"la1":30.2991,"la2":30.254,"lo1":-89.0895,"lo2":-89.0444,"dy":0.0017,"dx":0.0017,"nx":28,"ny":28,"refTime":"2023-08-03T03:00:00:Z","depth":0,"parameterNumber":3,"parameterNumberName":"V-component_of_WINDS"},"data":[0,0,0,0,0,0,0,0,0,0,0,0,0,0,0,0,0,0,0,0,0,0,0,0,0,0,0,0,0,0,0,0,0,0,0,0,0,0,0,0,0,0,0,0,0,0,0,0,0,0,0,0,0,0,0,0,0,0,2.813,2.8129,0,2.8007,2.8006,2.8004,2.7947,2.7947,2.7947,2.7947,2.7816,2.7812,2.7809,0,0,0,0,0,0,0,0,0,0,0,0,0,2.8312,2.8309,2.8131,2.8129,2.8127,2.8007,2.8005,2.8004,2.7947,2.7947,2.7947,2.7947,2.7817,2.7813,2.7808,0,0,0,0,0,0,0,0,0,0,0,0,0,2.8215,2.8308,2.8131,2.8085,2.8079,2.8008,2.8005,2.8003,2.7947,2.7947,2.7947,2.7947,2.7818,2.7813,2.7808,2.7771,0,0,2.7791,2.7789,0,0,0,0,0,0,0,0,2.8221,2.8208,2.8093,2.8088,2.8082,2.7993,2.8021,2.7925,2.7947,2.7997,2.7947,2.7948,2.7874,2.7864,2.784,2.7765,2.7759,2.7791,2.7787,2.7785,2.7783,0,0,0,0,0,0,0,2.8227,2.8213,2.8081,2.8091,2.8084,2.8068,2.8055,2.8003,2.7936,2.7993,2.7988,2.7975,2.7871,2.7846,2.7837,2.7757,2.7791,2.7786,2.7783,2.778,2.7644,2.7644,0,0,0,0,0,0,2.8242,2.8219,2.8085,2.8078,2.8153,2.8065,2.805,2.8021,2.7936,2.7924,2.7975,2.7973,2.7855,2.7843,2.7832,2.7783,2.7785,2.778,2.7777,2.7644,2.7644,2.7644,0,0,0,0,0,0,2.8247,2.8231,2.809,2.8147,2.8128,2.8062,2.803,2.8018,2.7993,2.7923,2.791,2.7962,2.7855,2.784,2.7787,2.7778,2.7777,2.7773,2.7645,2.7644,2.7644,2.7685,0,0,0,0,0,0,2.8252,2.8233,2.8219,2.8148,2.8126,2.8049,2.8029,2.8016,2.7985,2.7981,2.7907,2.7895,2.7854,2.7795,2.7781,2.777,2.7768,2.7645,2.7645,2.7644,2.7684,2.7686,2.7688,0,0,0,0,0,2.8259,2.8235,2.8219,2.8203,2.8108,2.8048,2.8035,2.799,2.7984,2.7969,2.7924,2.7897,2.7781,2.779,2.7774,2.7761,2.7646,2.7645,2.7644,2.7683,2.7686,2.7687,0,0,0,0,0,0,2.8305,2.8224,2.8206,2.8159,2.8111,2.8039,2.8019,2.7994,2.7945,2.7943,2.7887,2.7871,2.7823,2.7786,2.7798,2.7721,2.7711,2.7707,2.7746,2.7748,2.7749,2.7759,2.7764,0,0,0,0,0,2.831,2.8271,2.8202,2.8166,2.8144,2.8086,2.8058,2.8027,2.7975,2.7954,2.7904,2.7853,2.7805,2.7774,2.7726,2.7679,2.7661,2.7662,2.7664,2.7665,2.7662,2.7634,2.7633,2.7641,2.7641,2.7641,0,0,2.8319,2.8271,2.8249,2.8174,2.8134,2.8093,2.8069,2.8026,2.7994,2.7946,2.7894,2.7856,2.7795,2.7745,2.772,2.7713,2.7657,2.7664,2.7666,2.7662,2.7633,2.7633,2.7632,2.764,2.764,2.7641,0,0,2.8315,2.8275,2.8241,2.8202,2.8141,2.8103,2.8095,2.8027,2.8,2.7947,2.791,2.7871,2.7789,2.7747,2.7715,2.7696,2.767,2.7682,2.769,2.7664,2.7663,2.7662,2.7655,2.7653,2.7679,2.7679,2.7679,0,2.8334,2.8272,2.8226,2.8186,2.8154,2.8111,2.8075,2.8038,2.7965,2.7943,2.7937,2.7834,2.7789,2.7729,2.7724,2.77,2.7688,2.769,2.7667,2.7666,2.7664,2.7657,2.7654,2.7681,2.7681,2.7681,2.7681,0,2.8298,2.8256,2.8235,2.8168,2.8133,2.8095,2.8042,2.8012,2.7985,2.7947,2.7892,2.7838,2.7778,2.7762,2.7733,2.7697,2.7694,2.7679,2.7667,2.7666,2.7658,2.7655,2.7684,2.7683,2.7683,2.7682,0,0,2.8319,2.8227,2.8221,2.8189,2.812,2.8085,2.8045,2.7988,2.7964,2.7914,2.7878,2.7811,2.7796,2.776,2.7726,2.7703,2.7691,2.7689,2.7687,2.7691,2.7646,2.7659,2.7656,2.7673,2.7672,2.7672,2.7651,0,2.8305,2.8233,2.8191,2.8136,2.8096,2.8054,2.8019,2.7972,2.7935,2.7894,2.7853,2.7806,2.779,2.7768,2.7743,2.7698,2.7681,2.7698,2.7637,2.7636,2.7654,2.7652,2.7664,2.7648,2.7648,2.7647,2.7647,0,2.8279,2.8233,2.8175,2.811,2.8091,2.8061,2.8005,2.7968,2.7913,2.7887,2.7848,2.7814,2.7769,2.7762,2.7698,2.7711,2.7683,2.7657,2.7655,2.7647,2.7641,2.7643,2.7641,2.7639,2.7641,2.7642,2.7642,0,2.83,2.8223,2.8178,2.8153,2.8076,2.8056,2.8022,2.7968,2.7937,2.7888,2.7866,2.7812,2.7782,2.774,2.7693,2.7692,2.7633,2.7622,2.761,2.7611,2.7598,2.76,2.7592,2.7582,2.7582,2.7582,2.7582,0,2.8289,2.8254,2.8187,2.8159,2.8119,2.807,2.8031,2.7994,2.7946,2.7909,2.7869,2.7835,2.7775,2.7733,2.7695,2.7648,2.7634,2.7612,2.7602,2.7615,2.7618,2.7596,2.7595,2.7581,2.7581,2.7582,2.7582,0,2.8305,2.8258,2.8207,2.8139,2.8122,2.8095,2.8036,2.8007,2.7969,2.7923,2.7909,2.7848,2.7797,2.7745,2.7675,2.765,2.7603,2.759,2.7622,2.7617,2.7607,2.7608,2.7584,2.7578,2.7573,2.7573,2.7573,0,2.8301,2.8274,2.8204,2.8178,2.8146,2.8104,2.8072,2.8022,2.7991,2.7926,2.7905,2.7851,2.7805,2.7725,2.7673,2.7619,2.7604,2.76,2.7596,2.761,2.7604,2.7606,2.7602,2.7601,2.7601,2.7602,2.7602,0,2.8298,2.8276,2.8233,2.8182,2.8146,2.8103,2.8058,2.8038,2.7979,2.7946,2.7894,2.7858,2.7788,2.7735,2.7675,2.7639,2.761,2.7604,2.7598,2.761,2.763,2.7619,2.7626,2.7604,2.7604,2.7604,2.7604,2.7603,2.8303,2.8277,2.8225,2.8178,2.8139,2.8099,2.8068,2.8027,2.7983,2.7923,2.7896,2.7844,2.7789,2.7706,2.7671,2.7628,2.762,2.7612,2.7609,2.7608,2.7611,2.7638,2.7617,2.7617,2.7616,2.7616,2.7616,0,2.8298,2.8262,2.822,2.816,2.8122,2.8101,2.805,2.802,2.7975,2.7927,2.7884,2.7824,2.7772,2.7717,2.7661,2.7638,2.7623,2.7625,2.7625,2.7617,2.7621,2.7632,2.7637,2.7637,2.7637,2.7637,2.7637,2.7637,2.8291,2.8246,2.8218,2.8153,2.8117,2.8067,2.804,2.8001,2.7963,2.7899,2.7856,2.7822,2.777,2.7711,2.7662,2.7647,2.7628,2.7633,2.7615,2.7619,2.7617,2.7616,2.7625,2.763,2.763,2.7614,2.7614,2.7614]}]]